Date String (YYYY-MM-DD hh:mm:ss) UTC,Instrument flags,Ambient pressure (hPa),Sample flow (lpm),Bypass flow (lpm),Sample temperature (°C),Ambient temperature (°C),ASC tube jacket temperature (°C),LED temperature (°C),Box temperature (°C),Sample RH (%),Span deviation,Mass concentration (μg/m³),Mass concentration (μg/m³),Mass concentration (μg/m³)
DateTimeUTC,F1_M11,P_M11,Q1_M11,Q2_M11,T1_M11,T2_M11,T3_M11,T4_M11,T5_M11,U1_M11,ZSPAN_M11,X0_M11,X2_M11,X1_M11
2022-11-25 21:00:00,,0830.0,5.00,0.00,27.5,26.5,00.0,36.3,29.4,09.5,0000.0,0002.29,0000.46,0000.30
2022-11-25 21:01:00,,0830.0,5.01,0.00,27.5,26.5,00.0,36.3,29.4,09.6,0000.0,0002.78,0000.49,0000.30
2022-11-25 21:02:00,,0829.9,4.98,0.00,27.5,26.5,00.0,36.3,29.4,09.3,0000.0,0002.78,0000.49,0000.31
2022-11-25 21:03:00,,0829.9,5.01,0.00,27.5,26.5,00.0,36.3,29.4,09.4,0000.0,0002.82,0000.50,0000.32
2022-11-25 21:04:00,,0829.9,4.99,0.00,27.5,26.5,00.0,36.3,29.4,09.5,0000.0,0002.80,0000.51,0000.33
2022-11-25 21:05:00,,0829.8,5.01,0.00,27.6,26.5,00.0,36.3,29.5,09.5,0000.0,0002.78,0000.52,0000.32
2022-11-25 21:06:00,,0829.8,4.98,0.00,27.6,26.6,00.0,36.4,29.5,09.7,0000.0,0002.82,0000.55,0000.33
2022-11-25 21:07:00,,0829.8,5.02,0.00,27.6,26.6,00.0,36.4,29.5,09.7,0000.0,0002.80,0000.54,0000.32
2022-11-25 21:08:00,,0829.9,4.98,0.00,27.6,26.6,00.0,36.4,29.5,09.6,0000.0,0002.77,0000.54,0000.32
2022-11-25 21:09:00,,0829.9,5.01,0.00,27.6,26.6,00.0,36.4,29.5,09.6,0000.0,0002.33,0000.51,0000.32
2022-11-25 21:10:00,,0829.9,4.99,0.00,27.6,26.6,00.0,36.4,29.5,09.6,0000.0,0002.32,0000.52,0000.33
2022-11-25 21:11:00,,0829.9,5.01,0.00,27.6,26.6,00.0,36.4,29.6,09.7,0000.0,0001.74,0000.53,0000.33
2022-11-25 21:12:00,,0829.8,4.98,0.00,27.6,26.6,00.0,36.4,29.5,09.5,0000.0,0000.79,0000.50,0000.33
2022-11-25 21:13:00,,0829.8,5.01,0.00,27.6,26.7,00.0,36.5,29.6,09.6,0000.0,0000.86,0000.51,0000.33
2022-11-25 21:14:00,,0829.8,4.99,0.00,27.7,26.7,00.0,36.5,29.6,09.6,0000.0,0000.93,0000.53,0000.34
2022-11-25 21:15:00,,0829.8,5.01,0.00,27.7,26.7,00.0,36.5,29.6,09.5,0000.0,0000.89,0000.52,0000.33
2022-11-25 21:16:00,,0829.7,4.98,0.00,27.7,26.7,00.0,36.5,29.6,09.5,0000.0,0000.83,0000.49,0000.33
2022-11-25 21:17:00,,0829.8,5.01,0.00,27.7,26.7,00.0,36.5,29.6,09.5,0000.0,0000.79,0000.46,0000.33
2022-11-25 21:18:00,,0829.7,4.99,0.00,27.7,26.7,00.0,36.5,29.6,09.6,0000.0,0000.77,0000.45,0000.34
2022-11-25 21:19:00,,0829.7,5.01,0.00,27.7,26.7,00.0,36.5,29.6,09.6,0000.0,0001.59,0000.46,0000.34
2022-11-25 21:20:00,,0829.6,4.98,0.00,27.7,26.7,00.0,36.5,29.6,09.7,0000.0,0002.06,0000.46,0000.34
2022-11-25 21:21:00,,0829.8,5.00,0.00,27.7,26.8,00.0,36.6,29.6,09.8,0000.0,0002.23,0000.46,0000.34
2022-11-25 21:22:00,,0829.9,5.02,0.00,27.7,26.8,00.0,36.6,29.6,09.9,0000.0,0002.22,0000.46,0000.34
2022-11-25 21:23:00,,0829.9,5.00,0.00,27.8,26.8,00.0,36.6,29.7,09.8,0000.0,0002.70,0000.47,0000.34
2022-11-25 21:24:00,,0829.9,5.00,0.00,27.8,26.8,00.0,36.6,29.7,09.8,0000.0,0002.71,0000.46,0000.34
2022-11-25 21:25:00,,0829.7,4.98,0.00,27.8,26.8,00.0,36.6,29.7,09.9,0000.0,0002.62,0000.44,0000.35
2022-11-25 21:26:00,,0829.6,5.02,0.00,27.8,26.8,00.0,36.6,29.7,09.7,0000.0,0002.62,0000.45,0000.37
2022-11-25 21:27:00,,0829.6,4.98,0.00,27.8,26.8,00.0,36.6,29.7,09.8,0000.0,0002.76,0000.49,0000.37
2022-11-25 21:28:00,,0829.6,5.02,0.00,27.8,26.9,00.0,36.6,29.8,09.8,0000.0,0002.80,0000.51,0000.38
2022-11-25 21:29:00,,0829.5,4.99,0.00,27.8,26.9,00.0,36.7,29.8,09.7,0000.0,0002.81,0000.52,0000.39
2022-11-25 21:30:00,,0829.6,5.02,0.00,27.8,26.9,00.0,36.7,29.8,09.9,0000.0,0001.95,0000.53,0000.41
2022-11-25 21:31:00,,0829.5,4.99,0.00,27.8,26.9,00.0,36.7,29.8,09.8,0000.0,0001.70,0000.56,0000.42
2022-11-25 21:32:00,,0829.6,5.01,0.00,27.8,26.9,00.0,36.7,29.7,09.7,0000.0,0001.63,0000.58,0000.44
2022-11-25 21:33:00,,0829.6,4.99,0.00,27.9,26.9,00.0,36.7,29.8,09.7,0000.0,0001.60,0000.57,0000.45
2022-11-25 21:34:00,,0829.5,5.01,0.00,27.9,26.9,00.0,36.7,29.8,09.8,0000.0,0001.22,0000.59,0000.48
2022-11-25 21:35:00,,0829.6,5.00,0.00,27.9,26.9,00.0,36.7,29.8,09.8,0000.0,0001.24,0000.62,0000.50
2022-11-25 21:36:00,,0829.6,5.00,0.00,27.9,26.9,00.0,36.7,29.8,10.0,0000.0,0002.78,0000.66,0000.53
2022-11-25 21:37:00,,0829.5,5.01,0.00,27.9,26.9,00.0,36.7,29.8,09.9,0000.0,0002.84,0000.70,0000.55
2022-11-25 21:38:00,,0829.5,4.98,0.00,27.9,26.9,00.0,36.8,29.8,10.0,0000.0,0002.79,0000.71,0000.60
2022-11-25 21:39:00,,0829.6,5.02,0.00,27.9,26.9,00.0,36.8,29.8,09.9,0000.0,0003.00,0000.74,0000.63
2022-11-25 21:40:00,,0829.5,4.98,0.00,27.9,26.8,00.0,36.8,29.8,09.9,0000.0,0003.42,0000.78,0000.67
2022-11-25 21:41:00,,0829.6,5.01,0.00,27.9,26.8,00.0,36.8,29.8,09.9,0000.0,0003.49,0000.81,0000.70
2022-11-25 21:42:00,,0829.6,4.99,0.00,27.9,26.8,00.0,36.8,29.8,10.0,0000.0,0003.61,0000.87,0000.75
2022-11-25 21:43:00,,0829.5,5.01,0.00,27.9,26.8,00.0,36.8,29.8,10.0,0000.0,0003.55,0000.91,0000.78
2022-11-25 21:44:00,,0829.5,4.99,0.00,27.9,26.8,00.0,36.8,29.8,09.9,0000.0,0003.65,0000.96,0000.81
2022-11-25 21:45:00,,0829.5,5.00,0.00,27.9,26.8,00.0,36.8,29.8,10.1,0000.0,0003.71,0001.01,0000.83
2022-11-25 21:46:00,,0829.5,5.02,0.00,27.9,26.9,00.0,36.8,29.8,09.9,0000.0,0003.76,0001.07,0000.84
2022-11-25 21:47:00,,0829.5,4.98,0.00,27.9,26.8,00.0,36.8,29.8,10.0,0000.0,0002.30,0001.10,0000.85
2022-11-25 21:48:00,,0829.5,5.01,0.00,27.9,26.8,00.0,36.8,29.8,10.0,0000.0,0002.37,0001.12,0000.87
2022-11-25 21:49:00,,0829.5,5.00,0.00,28.0,26.8,00.0,36.8,29.8,10.3,0000.0,0002.51,0001.17,0000.87
2022-11-25 21:50:00,,0829.5,4.99,0.00,28.0,26.8,00.0,36.8,29.8,10.3,0000.0,0002.40,0001.22,0000.88
2022-11-25 21:51:00,,0829.5,5.01,0.00,28.0,26.9,00.0,36.8,29.8,10.2,0000.0,0002.13,0001.25,0000.90
2022-11-25 21:52:00,,0829.5,5.00,0.00,28.0,26.9,00.0,36.8,29.8,10.2,0000.0,0002.16,0001.27,0000.91
2022-11-25 21:53:00,,0829.5,5.00,0.00,28.0,26.9,00.0,36.8,29.8,10.2,0000.0,0002.05,0001.28,0000.91
2022-11-25 21:54:00,,0829.5,5.00,0.00,28.0,26.9,00.0,36.8,29.8,10.3,0000.0,0002.63,0001.31,0000.93
2022-11-25 21:55:00,,0829.5,5.00,0.00,28.0,26.8,00.0,36.8,29.8,10.2,0000.0,0002.89,0001.35,0000.95
2022-11-25 21:56:00,,0829.5,5.00,0.00,28.0,26.8,00.0,36.8,29.8,10.2,0000.0,0002.94,0001.38,0000.97
2022-11-25 21:57:00,,0829.5,5.01,0.00,28.0,26.9,00.0,36.8,29.8,10.2,0000.0,0002.93,0001.38,0001.00
2022-11-25 21:58:00,,0829.5,4.98,0.00,28.0,26.9,00.0,36.9,29.8,10.2,0000.0,0003.27,0001.39,0001.02
2022-11-25 21:59:00,,0829.5,5.02,0.00,28.0,26.8,00.0,36.9,29.8,10.3,0000.0,0003.65,0001.42,0001.03
